This demonstration page uses our WeatherBlox Daily Observations layout. Learn more.

Left ArrowRight Arrow

39.92423, -83.80882

Hourly Observations for November 23, 2018

Temp ( °F °C ) Dew Point ( °F °C ) Humidity (%) Winds ( mph kmh ) Pressure ( in mb ) Visibility ( mi km ) Precip ( " mm )
12:56 am 00:56 Clear 27 -2.8 24 -4.4 89 89 ESE 9 15 30.37 1028 10 16.0934 N/A
1:56 am 01:56 Clear 27 -2.8 24 -4.4 89 89 ESE 10 17 30.35 1028 10 16.0934 N/A
2:56 am 02:56 Clear 27 -2.8 24 -4.4 89 89 ESE 13 20 30.34 1027 10 16.0934 N/A
3:56 am 03:56 Clear 26 -3.3 23 -5 88 88 ESE 9 15 30.32 1027 10 16.0934 N/A
4:56 am 04:56 Clear 26 -3.3 23 -5 88 88 ESE 10 17 30.3 1026 10 16.0934 N/A
5:56 am 05:56 Clear 26 -3.3 23 -5 88 88 ESE 10 17 30.29 1026 10 16.0934 N/A
6:56 am 06:56 Clear 26 -3.3 23 -5 88 88 ESE 10 17 30.28 1026 10 16.0934 N/A
7:56 am 07:56 Sunny 27 -2.8 24 -4.4 89 89 SE 8 13 30.28 1025 10 16.0934 N/A
8:56 am 08:56 Sunny 31 -0.6 26 -3.3 82 82 SE 12 19 30.27 1025 10 16.0934 N/A
9:56 am 09:56 Sunny 36 2.2 29 -1.7 76 76 SE 10 17 30.26 1025 10 16.0934 N/A
10:56 am 10:56 Sunny 40 4.4 32 undefined 73 73 SSE 12 19 30.24 1024 10 16.0934 N/A
11:56 am 11:56 Sunny 46 7.8 36 2.2 68 68 SSE 9 15 30.21 1023 10 16.0934 N/A
12:56 pm 12:56 Sunny 47 8.3 38 3.3 71 71 SSE 12 19 30.18 1022 10 16.0934 N/A
1:56 pm 13:56 Sunny 49 9.4 40 4.4 71 71 SSE 10 17 30.15 1021 10 16.0934 N/A
2:56 pm 14:56 Sunny 49 9.4 40 4.4 71 71 SE 12 19 30.12 1020 10 16.0934 N/A
3:56 pm 15:56 Sunny 48 8.9 40 4.4 74 74 SE 10 17 30.09 1019 10 16.0934 N/A
4:56 pm 16:56 Sunny 47 8.3 39 3.9 74 74 SE 10 17 30.07 1018 10 16.0934 N/A
5:56 pm 17:56 Clear 45 7.2 38 3.3 77 77 SE 12 19 30.05 1018 10 16.0934 N/A
6:56 pm 18:56 Clear 45 7.2 37 2.8 74 74 SE 12 19 30.04 1017 10 16.0934 N/A
7:56 pm 19:56 Mostly Clear 44 6.7 37 2.8 76 76 SE 10 17 30 1016 10 16.0934 N/A
8:56 pm 20:56 Clear 45 7.2 37 2.8 74 74 SE 14 22 29.96 1015 10 16.0934 N/A
9:56 pm 21:56 Cloudy 46 7.8 38 3.3 73 73 SE 13 20 29.92 1013 10 16.0934 N/A
10:56 pm 22:56 Mostly Cloudy with Light Rain 45 7.2 38 3.3 77 77 SE 14 22 29.87 1012 10 16.0934 N/A
11:56 pm 23:56 Mostly Cloudy 44 6.7 39 3.9 83 83 SE 14 22 29.85 1011 10 16.0934 N/A

Powered by AerisWeather